TAP07S LPPT-LPFR

Flight info

Callsign TAP07S
Flight time 0h 29m
Altitude 23000
Route DUZOP DCT ODEMI
Aircraft A20N/M-SDE2E3FGHIRWXY/LB1

Departure

Time 2026-05-05 17:42
Airport Lisbon Humberto Delgado Airport (LPPT)

Arrival

Time 2026-05-05 18:11
Airport Faro - Gago Coutinho International Airport (LPFR)
Time Latitude Longitude Altitude Speed Heading
2026-05-05 17:07 38.76564 -9.13396 353 ft 0 kts 73°
2026-05-05 17:29 38.76561 -9.13410 353 ft 4 kts 68°
2026-05-05 17:29 38.76547 -9.13439 356 ft 4 kts 36°
2026-05-05 17:30 38.76527 -9.13448 352 ft 1 kts 344°
2026-05-05 17:30 38.76522 -9.13446 350 ft 0 kts 344°
2026-05-05 17:35 38.76548 -9.13456 347 ft 7 kts 343°
2026-05-05 17:36 38.76609 -9.13479 349 ft 12 kts 343°
2026-05-05 17:36 38.76641 -9.13568 350 ft 15 kts 258°
2026-05-05 17:36 38.76616 -9.13718 350 ft 20 kts 257°
2026-05-05 17:36 38.76583 -9.13908 354 ft 24 kts 260°
2026-05-05 17:37 38.76534 -9.14045 357 ft 18 kts 228°
2026-05-05 17:37 38.76504 -9.14206 350 ft 23 kts 291°
2026-05-05 17:37 38.76522 -9.14257 338 ft 6 kts 294°
2026-05-05 17:37 38.76538 -9.14305 335 ft 0 kts 294°
2026-05-05 17:40 38.76551 -9.14342 334 ft 11 kts 294°
2026-05-05 17:41 38.76608 -9.14407 334 ft 12 kts 10°
2026-05-05 17:41 38.76692 -9.14366 334 ft 16 kts 23°
2026-05-05 17:41 38.76980 -9.14217 349 ft 77 kts 22°
2026-05-05 17:41 38.77646 -9.13854 365 ft 129 kts 22°
2026-05-05 17:42 38.78575 -9.13321 530 ft 156 kts 19°
2026-05-05 17:42 38.79603 -9.12756 1070 ft 161 kts 19°
2026-05-05 17:42 38.80629 -9.12158 1719 ft 163 kts 19°
2026-05-05 17:42 38.81677 -9.11516 2192 ft 175 kts 22°
2026-05-05 17:43 38.82849 -9.10759 2429 ft 202 kts 23°
2026-05-05 17:43 38.84125 -9.09883 3010 ft 215 kts 24°
2026-05-05 17:43 38.85317 -9.08642 3741 ft 234 kts 52°
2026-05-05 17:43 38.85806 -9.06515 4363 ft 268 kts 87°
2026-05-05 17:44 38.85253 -9.04191 5393 ft 280 kts 120°
2026-05-05 17:44 38.83836 -9.02485 6623 ft 283 kts 151°
2026-05-05 17:44 38.81942 -9.01756 7543 ft 295 kts 174°
2026-05-05 17:44 38.79840 -9.01843 8219 ft 312 kts 191°
2026-05-05 17:45 38.77663 -9.02432 8647 ft 337 kts 195°
2026-05-05 17:45 38.75321 -9.03219 9191 ft 356 kts 196°
2026-05-05 17:45 38.72894 -9.03976 10130 ft 362 kts 195°
2026-05-05 17:45 38.70420 -9.04728 11013 ft 368 kts 194°
2026-05-05 17:46 38.67906 -9.05463 11922 ft 373 kts 195°
2026-05-05 17:46 38.65355 -9.05801 13209 ft 368 kts 178°
2026-05-05 17:46 38.62841 -9.05091 14228 ft 375 kts 161°
2026-05-05 17:46 38.60446 -9.03724 15044 ft 379 kts 156°
2026-05-05 17:47 38.58039 -9.02306 15908 ft 382 kts 158°
2026-05-05 17:47 38.55571 -9.01026 16731 ft 385 kts 161°
2026-05-05 17:47 38.53037 -8.99875 17570 ft 387 kts 164°
2026-05-05 17:47 38.50463 -8.98802 18393 ft 390 kts 165°
2026-05-05 17:48 38.47857 -8.97760 19077 ft 394 kts 166°
2026-05-05 17:48 38.45228 -8.96723 19750 ft 397 kts 166°
2026-05-05 17:48 38.42571 -8.95678 20446 ft 401 kts 166°
2026-05-05 17:48 38.39889 -8.94620 21126 ft 405 kts 166°
2026-05-05 17:49 38.37192 -8.93555 21799 ft 408 kts 166°
2026-05-05 17:49 38.34468 -8.92478 22478 ft 412 kts 166°
2026-05-05 17:49 38.31710 -8.91389 22933 ft 416 kts 166°
2026-05-05 17:49 38.28945 -8.90286 23046 ft 417 kts 163°
2026-05-05 17:50 38.26328 -8.88656 23059 ft 422 kts 148°
2026-05-05 17:50 38.24030 -8.86310 23054 ft 425 kts 141°
2026-05-05 17:50 38.21788 -8.83847 23055 ft 426 kts 141°
2026-05-05 17:50 38.19558 -8.81380 23050 ft 425 kts 141°
2026-05-05 17:51 38.17324 -8.78910 23047 ft 425 kts 141°
2026-05-05 17:51 38.15085 -8.76444 23053 ft 426 kts 141°
2026-05-05 17:51 38.12847 -8.73984 23051 ft 426 kts 141°
2026-05-05 17:51 38.10603 -8.71522 23054 ft 426 kts 141°
2026-05-05 17:52 38.08360 -8.69066 23051 ft 426 kts 141°
2026-05-05 17:52 38.06144 -8.66641 23051 ft 426 kts 141°
2026-05-05 17:52 38.03869 -8.64154 23050 ft 426 kts 141°
2026-05-05 17:52 38.01623 -8.61700 23053 ft 426 kts 141°
2026-05-05 17:53 37.99379 -8.59250 23056 ft 426 kts 142°
2026-05-05 17:53 37.97137 -8.56805 23050 ft 426 kts 142°
2026-05-05 17:53 37.94894 -8.54362 23050 ft 426 kts 142°
2026-05-05 17:53 37.92649 -8.51918 23047 ft 426 kts 142°
2026-05-05 17:54 37.90403 -8.49476 23044 ft 426 kts 142°
2026-05-05 17:54 37.88179 -8.47058 23045 ft 426 kts 142°
2026-05-05 17:54 37.85931 -8.44617 23048 ft 426 kts 142°
2026-05-05 17:54 37.83681 -8.42177 23045 ft 426 kts 142°
2026-05-05 17:55 37.81428 -8.39735 23039 ft 426 kts 142°
2026-05-05 17:55 37.79181 -8.37300 23036 ft 426 kts 142°
2026-05-05 17:55 37.76931 -8.34866 23039 ft 426 kts 142°
2026-05-05 17:55 37.74680 -8.32431 23046 ft 426 kts 142°
2026-05-05 17:56 37.72431 -8.30001 22986 ft 423 kts 142°
2026-05-05 17:56 37.70202 -8.27594 22262 ft 423 kts 142°
2026-05-05 17:56 37.67945 -8.25162 21429 ft 428 kts 142°
2026-05-05 17:56 37.65665 -8.22707 20493 ft 433 kts 142°
2026-05-05 17:57 37.63382 -8.20249 19810 ft 429 kts 142°
2026-05-05 17:57 37.61123 -8.17816 19178 ft 425 kts 142°
2026-05-05 17:57 37.58887 -8.15411 18540 ft 421 kts 142°
2026-05-05 17:57 37.56667 -8.13026 17846 ft 417 kts 141°
2026-05-05 17:58 37.54478 -8.10677 16975 ft 410 kts 141°
2026-05-05 17:58 37.52320 -8.08363 15935 ft 406 kts 141°
2026-05-05 17:58 37.50170 -8.06062 15208 ft 404 kts 141°
2026-05-05 17:58 37.48036 -8.03779 14579 ft 400 kts 141°
2026-05-05 17:59 37.45948 -8.01545 13947 ft 397 kts 141°
2026-05-05 17:59 37.43846 -7.99298 13283 ft 394 kts 141°
2026-05-05 17:59 37.41769 -7.97078 12634 ft 390 kts 141°
2026-05-05 17:59 37.39716 -7.94885 12014 ft 385 kts 141°
2026-05-05 18:00 37.37681 -7.92714 11419 ft 382 kts 141°
2026-05-05 18:00 37.35663 -7.90561 10804 ft 379 kts 141°
2026-05-05 18:00 37.33682 -7.88441 10486 ft 365 kts 141°
2026-05-05 18:00 37.31809 -7.86435 10259 ft 343 kts 140°
2026-05-05 18:01 37.30045 -7.84552 10067 ft 322 kts 141°
2026-05-05 18:01 37.28378 -7.82785 9727 ft 309 kts 141°
2026-05-05 18:01 37.26749 -7.81063 9177 ft 302 kts 141°
2026-05-05 18:01 37.25172 -7.79398 8825 ft 291 kts 140°
2026-05-05 18:02 37.23640 -7.77778 8467 ft 287 kts 140°
2026-05-05 18:02 37.22118 -7.76167 8107 ft 285 kts 140°
2026-05-05 18:02 37.20610 -7.74567 7745 ft 284 kts 139°
2026-05-05 18:02 37.19105 -7.72973 7386 ft 283 kts 139°
2026-05-05 18:03 37.17596 -7.71378 7016 ft 283 kts 139°
2026-05-05 18:03 37.16090 -7.69785 6652 ft 283 kts 139°
2026-05-05 18:03 37.14590 -7.68199 6281 ft 282 kts 138°
2026-05-05 18:03 37.13094 -7.66615 5912 ft 280 kts 138°
2026-05-05 18:04 37.11610 -7.65045 5552 ft 278 kts 138°
2026-05-05 18:04 37.10129 -7.63494 5209 ft 277 kts 142°
2026-05-05 18:04 37.08410 -7.62526 4855 ft 268 kts 171°
2026-05-05 18:04 37.06604 -7.62669 4523 ft 259 kts 200°
2026-05-05 18:05 37.05022 -7.63700 4198 ft 256 kts 213°
2026-05-05 18:05 37.03492 -7.64876 4038 ft 269 kts 214°
2026-05-05 18:05 37.01897 -7.66094 3992 ft 262 kts 213°
2026-05-05 18:05 37.00372 -7.67232 3983 ft 248 kts 213°
2026-05-05 18:06 36.99058 -7.68492 3839 ft 239 kts 235°
2026-05-05 18:06 36.98526 -7.69712 3730 ft 237 kts 257°
2026-05-05 18:06 36.98396 -7.72363 3496 ft 230 kts 280°
2026-05-05 18:06 36.98496 -7.74365 3302 ft 230 kts 275°
2026-05-05 18:07 36.98592 -7.76339 3111 ft 227 kts 279°
2026-05-05 18:07 36.98807 -7.78296 2802 ft 224 kts 282°
2026-05-05 18:07 36.99063 -7.80135 2515 ft 206 kts 283°
2026-05-05 18:07 36.99304 -7.81824 2246 ft 189 kts 284°
2026-05-05 18:08 36.99530 -7.83390 2047 ft 174 kts 285°
2026-05-05 18:08 36.99738 -7.84818 1802 ft 159 kts 285°
2026-05-05 18:08 36.99917 -7.86082 1598 ft 137 kts 286°
2026-05-05 18:08 37.00075 -7.87173 1415 ft 119 kts 287°
2026-05-05 18:09 37.00228 -7.88200 1259 ft 120 kts 285°
2026-05-05 18:09 37.00374 -7.89214 1099 ft 118 kts 287°
2026-05-05 18:09 37.00524 -7.90243 939 ft 122 kts 285°
2026-05-05 18:09 37.00672 -7.91274 779 ft 118 kts 285°
2026-05-05 18:10 37.00817 -7.92286 614 ft 121 kts 285°
2026-05-05 18:10 37.00968 -7.93329 457 ft 124 kts 285°
2026-05-05 18:10 37.01128 -7.94389 313 ft 122 kts 284°
2026-05-05 18:10 37.01273 -7.95393 123 ft 116 kts 283°
2026-05-05 18:11 37.01415 -7.96391 32 ft 114 kts 284°
2026-05-05 18:11 37.01539 -7.97213 19 ft 64 kts 280°
2026-05-05 18:11 37.01594 -7.97621 18 ft 39 kts 279°
2026-05-05 18:11 37.01641 -7.97848 20 ft 7 kts 322°
2026-05-05 18:12 37.01699 -7.97836 20 ft 11 kts 31°
2026-05-05 18:12 37.01746 -7.97752 20 ft 14 kts 63°
2026-05-05 18:12 37.01771 -7.97623 20 ft 17 kts 91°
2026-05-05 18:12 37.01769 -7.97603 20 ft 0 kts 98°
2026-05-05 18:13 37.01769 -7.97602 20 ft 1 kts 98°
2026-05-05 18:13 37.01765 -7.97570 20 ft 6 kts 100°
2026-05-05 18:13 37.01754 -7.97496 20 ft 11 kts 100°
2026-05-05 18:13 37.01739 -7.97382 20 ft 16 kts 99°
2026-05-05 18:14 37.01719 -7.97230 20 ft 20 kts 100°
2026-05-05 18:14 37.01690 -7.97044 20 ft 24 kts 101°
2026-05-05 18:14 37.01680 -7.96975 20 ft 5 kts 99°
2026-05-05 18:14 37.01713 -7.96902 20 ft 12 kts 19°
2026-05-05 18:15 37.01804 -7.96878 20 ft 15 kts 30°
2026-05-05 18:15 37.01820 -7.96793 20 ft 10 kts 99°
2026-05-05 18:15 37.01811 -7.96725 20 ft 1 kts 98°
2026-05-05 18:15 37.01815 -7.96716 20 ft 1 kts 50°
2026-05-05 18:16 37.01829 -7.96709 21 ft 4 kts 16°
2026-05-05 18:16 37.01868 -7.96700 20 ft 7 kts
2026-05-05 18:16 37.01881 -7.96698 20 ft 3 kts
2026-05-05 18:16 37.01897 -7.96695 20 ft 2 kts
2026-05-05 18:17 37.01900 -7.96694 20 ft 0 kts